User: anonymous   Login
Location: Stull Observatory
(42.2506°N, 77.7903°W)
Time: 14:13:23
(UTC-04:00)
Language:

Abrixas rocket - Orbit

View from above orbital plane
View from above orbital plane
View from above satellite
View from above satellite

Ground track
Ground track

The orbit data is extracted from the following two-line orbital elements,

1 25723U 99022C   14297.25600209  .00015725  00000-0  48950-3 0  7849
2 25723 048.4234 216.0025 0016662 111.6036 021.5429 15.33226116856946
Epoch (UTC): 24 October 2014 06:08:38
Eccentricity: 0.0016662
inclination: 48.4234°
perigee height: 455 km
apogee height: 477 km
right ascension of ascending node: 216.0025°
argument of perigee: 111.6036°
revolutions per day: 15.33226116
mean anomaly at epoch: 21.5429°
orbit number at epoch: 85694

The dashed part of the orbit path shows where the satellite is in the earth's shadow,  

DLR